This is the latest recevied weather packets stored in our database for station/object W3SN-13. If no packets are shown the sender has not sent any weather packets the latest 10 day(s).
| Time | Temp. | Humidity | Pressure | Rain* | Wind** | Luminosity | Snow |
|---|---|---|---|---|---|---|---|
| 1787897156 | 28.33° C | 54% | 1012.5 hPa | 0 mm | - | - | - |
| 1787896555 | 28.33° C | 53% | 1012.6 hPa | 0 mm | - | - | - |
| 1787895954 | 28.89° C | 52% | 1012.5 hPa | 0 mm | - | - | - |
| 1787895352 | 28.33° C | 53% | 1012.6 hPa | 0 mm | - | - | - |
| 1787894751 | 28.33° C | 53% | 1012.5 hPa | 0 mm | - | - | - |
| 1787894150 | 28.89° C | 53% | 1012.5 hPa | 0 mm | - | - | - |
| 1787893548 | 28.89° C | 52% | 1012.5 hPa | 0 mm | - | - | - |
| 1787892946 | 28.89° C | 52% | 1012.5 hPa | 0 mm | - | - | - |
| 1787892344 | 29.44° C | 52% | 1012.6 hPa | 0 mm | - | - | - |
| 1787891743 | 29.44° C | 52% | 1012.6 hPa | 0 mm | - | - | - |
| 1787891142 | 29.44° C | 52% | 1012.7 hPa | 0 mm | - | - | - |
| 1787890540 | 29.44° C | 51% | 1012.7 hPa | 0 mm | - | - | - |
| 1787889938 | 29.44° C | 52% | 1012.7 hPa | 0 mm | - | - | - |
| 1787889337 | 30° C | 51% | 1012.6 hPa | 0 mm | - | - | - |
| 1787888735 | 30° C | 51% | 1012.6 hPa | 0 mm | - | - | - |
| 1787888133 | 30.56° C | 50% | 1012.4 hPa | 0 mm | - | - | - |
| 1787887532 | 30.56° C | 49% | 1012.3 hPa | 0 mm | - | - | - |
| 1787886930 | 30.56° C | 49% | 1012.2 hPa | 0 mm | - | - | - |
| 1787886329 | 31.11° C | 48% | 1012.1 hPa | 0 mm | - | - | - |
| 1787885727 | 31.11° C | 47% | 1012 hPa | 0 mm | - | - | - |
| 1787885125 | 31.67° C | 46% | 1011.9 hPa | 0 mm | - | - | - |
| 1787884524 | 31.67° C | 45% | 1011.6 hPa | 0 mm | - | - | - |
| 1787883922 | 32.22° C | 44% | 1011.6 hPa | 0 mm | - | - | - |
| 1787883321 | 32.78° C | 43% | 1011.5 hPa | 0 mm | - | - | - |
| 1787882719 | 32.78° C | 42% | 1011.5 hPa | 0 mm | - | - | - |
* Rain latest hour (hover to see other rain measurements)
** Current wind speed in m/s (hover to see current wind gust speed)